sat.trackr.live / text

‹ back to catalog

STARLINK-32782

NORAD 62821 · 2025-018R

PAYLOAD ACTIVE UNKNOWN

§ Identity

Operator
Country
US
Launch date
2025-01-24
Launch site
AFWTR
Launch vehicle
Mass (kg)
RCS (m²)

Purposes: comms

External: N2YO · Heavens-Above · Gunter

§ Orbital elements

Epoch: 2026-09-21T20:33:22.602240Z

Period
93.85 min
Inclination
53.1585°
Eccentricity
0.0001148
Mean motion
15.34404536 rev/d
Perigee alt
461.9 km
Apogee alt
463.5 km
Semi-major
6,840.8 km
B*
3.6602e-4
RAAN
115.4962°
Arg perigee
74.8062°
Mean anomaly
285.3068°
Rev number
9,325

§ Raw data

STARLINK-327821 62821U 25018R   26264.85651160  .00012012  00000+0  36602-3 0  99922 62821  53.1585 115.4962 0001148  74.8062 285.3068 15.34404536 93253

JSON: /api/v1/satellites/62821 · /tle

For live sub-satellite position, see the globe view (requires WebGL).

§ Visibility from observer

Set your observer location to see the next 7 days of passes ≥ 10°. The values pass through the URL so the page stays shareable.

No JS? Fill the form by hand. The geolocation button needs JavaScript.